Wind_Speed
41 41 41 41 40 40 41 41 41 41 41 42 42 42 41 41 41 40 40 40 40 41 42 43 45 46 48 49 50 52 53 53 53 53 54 55 56 56 55 54 53 52 51 50 51 51 52 53 54 56 57 59 60 61 62 63 64 65 66 67 68 68 68 69 68 68 69 70 70 71 71 71 71 70 68 67 66 66 68 69 71 73 75 77 78
40 40 40 40 39 39 39 39 39 40 39 39 39 38 37 37 37 37 38 39 41 42 44 45 47 49 50 51 52 53 53 54 54 55 56 56 55 54 52 51 50 50 51 51 52 53 54 55 56 58 59 60 61 62 63 64 65 66 67 67 68 68 68 69 68 68 69 70 72 72 72 71 70 68 67 66 66 67 69 71 73 75 77 79 81
39 39 39 39 39 38 38 38 38 37 37 36 35 35 36 36 38 39 40 42 43 45 47 49 50 51 52 53 53 54 55 56 57 56 55 54 52 51 50 50 51 51 52 53 54 54 55 56 58 59 60 61 62 63 64 64 65 66 67 67 68 68 69 69 69 70 70 71 72 71 71 70 69 68 68 68 69 69 71 73 75 77 80 82 84
40 40 39 39 38 38 38 37 36 36 35 35 36 37 38 39 41 42 43 45 47 48 50 51 52 53 54 55 56 57 57 56 55 53 52 51 50 50 50 51 52 52 53 54 55 56 57 58 59 60 61 62 63 63 64 64 65 66 66 67 68 68 69 70 71 72 72 71 71 70 70 69 69 70 70 71 71 72 73 74 76 79 81 83 86
40 39 39 39 38 38 38 37 37 37 37 38 39 40 41 43 44 45 47 48 50 51 52 53 54 55 56 56 56 55 54 52 51 51 51 50 50 51 51 52 53 53 54 55 56 57 58 59 60 61 62 62 63 63 63 64 64 65 66 67 68 69 71 72 72 72 72 71 70 70 70 70 71 72 73 73 73 73 74 75 78 81 83 85 86
39 39 39 39 39 39 39 38 39 39 40 41 42 44 45 47 48 49 50 51 52 53 54 54 55 55 55 54 53 52 51 51 50 50 50 50 50 51 52 53 54 55 55 56 58 59 60 60 61 61 61 61 61 62 62 63 64 66 67 68 69 71 71 71 71 71 71 71 71 71 72 72 73 75 76 77 77 77 76 76 78 81 84 86 88
41 40 40 41 40 41 41 41 42 43 44 45 47 48 49 50 51 51 52 53 53 54 55 55 55 54 53 52 51 50 50 50 49 49 50 50 51 52 53 54 55 56 57 58 59 59 59 59 59 59 60 60 61 61 62 64 65 67 68 69 70 70 70 70 71 71 71 71 72 72 73 74 75 76 78 79 79 80 81 81 80 81 83 86 90
44 43 43 43 43 44 44 45 46 47 48 49 49 50 51 51 52 53 54 54 54 55 54 54 53 52 51 50 49 49 49 49 49 50 51 52 53 54 55 56 57 57 58 58 58 58 58 58 58 58 59 60 61 62 63 65 66 67 68 69 69 69 69 70 70 71 71 71 72 73 75 76 77 78 79 80 81 82 84 86 85 85 84 85 89
45 45 45 46 46 47 47 48 49 49 50 50 51 52 53 54 54 54 54 54 54 53 53 52 51 49 49 48 48 48 49 49 50 51 52 54 55 56 56 57 57 56 56 56 56 57 57 58 58 59 60 61 62 63 65 66 67 67 68 68 68 69 70 70 70 71 71 72 73 74 75 77 78 78 80 82 84 85 86 87 87 87 87 86 88
48 48 49 49 49 50 50 51 51 51 52 53 53 54 54 54 54 53 53 52 51 50 49 48 47 47 47 47 48 49 50 51 52 53 54 55 56 56 56 56 56 56 56 57 57 58 58 59 60 60 61 63 63 65 66 66 67 67 67 67 68 69 70 70 71 71 72 73 74 75 77 78 80 81 82 84 86 87 88 88 88 88 89 89 89
50 51 51 51 51 51 51 52 52 53 54 54 54 54 53 52 51 50 49 48 47 46 46 46 47 47 48 49 50 51 52 52 53 54 55 56 56 56 56 56 56 57 57 58 59 60 60 60 61 62 63 64 64 65 65 66 66 67 67 68 69 70 71 71 72 72 73 75 76 77 78 80 81 83 84 85 86 87 88 89 90 90 91 92 93
50 51 51 52 52 52 53 53 53 53 53 52 51 50 48 47 45 45 44 45 45 46 47 47 48 49 50 51 51 52 53 53 54 55 56 56 56 56 57 57 58 59 59 60 60 61 61 61 62 63 64 64 64 65 65 66 66 67 68 69 70 71 72 72 73 74 75 76 77 79 80 81 83 84 85 86 86 87 88 89 90 91 93 95 97
52 53 53 53 53 52 52 51 50 49 48 46 44 43 43 43 43 44 45 46 47 48 49 50 50 51 52 52 53 53 54 55 56 57 57 57 57 57 58 59 59 60 60 60 61 61 61 62 63 64 64 64 64 65 65 66 67 68 70 71 72 72 73 73 74 75 76 77 78 80 81 82 83 85 86 87 87 87 88 89 90 92 94 96 98
52 51 50 49 48 47 45 44 43 42 41 41 41 42 42 44 45 46 47 48 49 50 51 51 52 52 53 53 54 55 56 57 58 58 57 58 58 58 59 59 60 60 60 61 61 62 62 63 64 64 64 64 65 65 66 67 68 70 71 72 72 72 72 73 74 75 76 78 79 80 82 83 84 84 85 87 88 89 90 91 92 94 95 96 97
46 45 43 42 41 40 40 40 41 41 41 42 43 43 45 46 47 48 49 50 51 51 52 52 52 53 54 54 56 57 58 58 58 58 58 59 59 59 59 59 60 60 61 61 62 62 63 63 63 64 64 65 65 66 67 68 70 71 72 72 72 72 72 73 74 76 77 78 79 80 82 83 83 84 86 87 89 89 91 93 95 96 95 95 95
41 41 40 40 40 41 42 42 43 43 44 44 45 46 47 48 49 50 50 51 51 52 53 53 53 54 55 56 57 58 59 60 59 59 59 59 59 59 59 60 61 61 62 62 62 63 63 63 64 64 65 65 66 67 68 69 71 71 71 71 71 72 72 73 75 76 77 78 79 80 82 82 84 86 87 88 89 90 92 94 95 96 96 96 95
40 41 41 42 43 43 44 44 45 46 46 47 47 48 48 49 49 49 50 51 52 53 53 54 54 56 57 58 59 60 61 60 60 59 60 59 59 60 60 61 61 62 62 63 63 63 63 63 64 65 65 65 67 68 69 70 71 71 71 71 71 72 73 74 75 76 77 78 79 80 82 83 85 87 88 88 90 92 94 94 95 97 97 96 96
41 41 42 43 44 45 46 46 47 47 47 47 48 48 48 48 49 50 51 52 53 53 54 55 56 58 59 60 61 61 61 60 60 60 60 60 60 60 61 61 62 62 63 62 62 63 63 64 64 64 65 66 68 69 69 70 70 70 70 70 71 72 73 74 75 76 77 78 79 80 82 84 86 87 87 89 92 93 94 95 96 97 97 97 97
43 44 44 45 45 46 47 47 47 47 47 47 47 47 48 49 50 51 52 52 52 53 55 56 58 59 61 61 61 61 60 60 60 60 60 60 60 61 61 62 62 62 63 63 63 63 63 64 64 65 66 67 68 69 70 70 70 70 70 71 71 72 73 74 75 76 77 78 79 81 83 85 86 87 88 91 92 93 94 95 97 97 96 96 96
45 46 46 46 46 47 47 47 47 47 47 47 48 48 49 50 50 50 51 52 53 54 56 57 59 60 61 61 61 60 60 61 61 60 60 60 60 61 62 62 62 63 63 63 64 64 64 64 65 66 67 68 69 69 70 70 70 70 70 71 72 72 73 74 75 76 77 78 80 82 83 84 85 87 90 91 92 92 93 95 96 95 95 94 94
47 47 47 47 47 47 47 47 47 47 48 48 48 49 49 49 49 50 52 53 55 56 57 58 59 60 61 60 60 61 61 61 61 60 60 61 61 62 63 63 63 63 64 64 64 64 64 65 66 67 68 69 70 70 70 70 70 70 71 71 72 73 74 75 76 77 78 79 80 82 83 84 86 88 90 90 90 91 93 94 94 94 93 92 92
47 47 47 46 46 47 47 47 48 48 48 48 48 48 48 49 50 52 53 55 56 57 58 58 59 59 60 60 61 61 61 61 61 61 61 62 63 63 63 63 64 64 64 64 64 64 65 66 67 68 69 70 70 70 70 70 70 71 71 71 72 73 75 76 76 78 78 79 80 81 82 84 86 88 88 88 89 90 91 92 92 92 91 91 91
47 47 47 46 47 47 47 48 48 48 47 47 47 48 48 49 51 52 53 55 55 56 57 57 58 58 59 60 61 61 61 61 61 62 62 63 64 64 64 64 64 64 63 63 64 65 66 67 68 69 70 70 70 70 70 70 71 71 71 72 73 74 75 76 77 78 79 79 80 81 83 85 86 86 87 87 88 89 89 90 90 90 90 89 89
46 47 47 47 48 48 48 48 48 48 48 48 48 48 49 50 51 51 52 53 54 55 55 56 57 58 59 60 61 62 62 62 62 63 64 64 65 65 65 65 64 64 63 64 65 66 67 68 69 69 70 70 70 70 71 71 71 71 72 73 74 75 75 76 77 78 78 79 80 82 84 85 85 85 85 86 87 87 88 89 89 88 87 86 85
46 47 48 48 49 49 49 49 49 49 49 49 49 50 50 51 51 51 52 53 53 54 55 56 57 59 60 61 61 62 63 63 64 64 65 65 65 66 66 65 65 64 64 65 67 68 68 68 69 69 70 70 70 71 71 71 72 72 73 73 74 75 76 77 77 78 78 80 81 83 84 84 84 84 85 85 86 86 87 86 85 84 83 82 81
47 48 49 49 50 50 50 50 50 50 50 50 51 51 52 52 52 52 53 53 54 55 56 57 59 59 60 61 61 62 63 64 64 65 65 65 66 66 66 66 65 65 65 67 68 69 68 68 69 69 70 70 71 71 72 72 72 73 73 74 75 76 76 76 76 77 79 81 82 83 84 84 84 84 84 85 85 85 85 83 82 80 79 78 78
49 50 50 51 51 51 51 51 51 51 52 52 53 54 54 54 54 54 54 55 56 57 58 59 60 60 61 62 62 62 63 64 64 65 65 66 67 67 66 66 65 66 67 68 68 69 68 68 68 69 70 70 71 72 72 73 73 73 74 75 75 76 76 76 77 78 80 81 82 83 83 83 83 83 83 84 84 84 83 82 80 77 76 75 75
50 51 51 51 52 52 52 52 52 53 54 54 55 55 56 55 55 55 56 57 57 58 60 60 61 62 62 63 63 63 64 64 65 65 67 68 68 67 67 66 66 67 68 69 69 68 68 68 68 69 70 71 71 72 73 73 74 74 75 75 76 76 76 76 78 79 81 82 83 83 83 82 82 82 82 82 82 82 81 80 78 76 74 74 74
51 51 51 52 52 53 53 54 54 55 56 56 56 57 57 56 57 57 57 58 59 60 61 62 63 63 63 64 64 65 65 65 65 66 67 68 68 67 67 68 68 69 69 69 68 67 67 68 69 69 70 71 72 73 73 74 74 75 76 76 76 76 76 77 79 81 82 82 82 82 81 80 80 80 80 80 81 81 80 79 77 75 73 73 73
51 52 52 53 54 54 55 55 56 56 57 57 57 57 57 57 58 58 59 60 61 62 63 64 64 65 65 65 65 66 66 66 66 67 68 68 68 68 68 69 70 70 69 68 67 67 68 69 69 70 72 73 73 74 74 75 76 76 76 76 76 76 77 79 80 81 82 82 81 80 79 79 79 79 79 79 79 79 79 78 76 74 73 72 72
53 54 54 55 55 55 56 56 57 57 57 57 57 58 58 59 59 60 61 61 62 63 64 65 65 65 65 66 66 66 67 67 67 67 68 68 68 69 70 70 71 70 69 67 67 68 69 70 71 72 73 74 74 75 75 76 76 76 76 76 76 77 78 79 80 81 81 80 80 79 78 78 78 78 78 78 78 78 78 77 74 73 72 72 72
55 55 55 56 56 56 57 57 57 57 57 57 58 59 59 60 61 61 62 63 64 64 65 65 65 65 66 66 67 67 67 68 68 69 69 69 69 70 71 72 71 70 69 68 68 70 71 71 72 73 74 74 75 76 77 77 77 76 76 77 78 78 79 79 80 80 79 79 78 78 77 77 77 77 77 77 77 77 77 75 73 72 71 71 71
55 55 56 56 56 56 56 56 56 57 57 58 59 59 60 60 61 62 63 63 64 64 64 65 65 66 67 67 68 68 68 68 69 70 70 70 71 72 72 73 72 70 69 69 71 71 71 72 72 73 74 75 76 77 77 77 76 77 77 77 78 78 79 79 78 78 78 78 77 76 76 76 76 76 76 76 76 76 76 74 71 71 70 69 70
56 56 56 56 55 55 55 56 56 57 57 58 58 59 60 60 61 62 62 63 63 64 64 65 66 67 68 68 69 69 69 69 70 71 71 71 72 73 73 73 72 71 71 72 72 72 71 72 73 74 75 76 77 77 76 76 76 77 77 78 78 78 78 78 77 77 77 76 75 74 74 74 75 75 74 74 74 75 75 73 71 70 69 68 69
55 55 56 55 56 56 56 56 57 57 57 58 58 59 60 61 61 62 63 63 64 65 65 66 67 68 69 70 70 70 69 70 71 72 73 74 74 74 74 73 72 72 72 73 72 71 72 73 74 75 76 76 76 76 76 76 77 77 77 78 78 78 78 77 76 76 75 73 72 72 72 73 73 73 72 72 73 75 74 72 71 70 68 68 69
56 56 56 56 56 56 56 57 57 57 58 59 59 60 61 62 62 63 63 64 65 66 67 68 69 70 70 71 71 71 70 70 71 73 74 75 75 74 73 73 73 74 74 73 72 72 73 74 75 76 76 76 76 76 76 76 77 77 77 77 78 78 76 75 73 73 72 71 70 70 70 71 71 71 70 71 72 74 74 72 70 69 68 67 68
57 57 57 57 57 57 57 58 58 59 59 60 61 62 62 63 63 64 64 65 66 67 68 69 70 71 71 72 72 72 72 72 73 74 74 74 75 74 74 74 75 75 75 74 73 73 74 76 76 76 76 76 76 76 76 76 77 77 77 77 77 76 74 72 71 70 70 70 69 69 69 70 70 69 69 70 72 73 73 71 69 68 67 67 67
57 57 58 58 58 58 59 59 60 61 61 62 63 63 64 64 65 65 66 67 68 69 70 70 71 72 72 72 72 73 73 73 74 73 73 74 75 75 74 74 75 76 76 76 76 76 76 77 76 76 77 77 77 77 77 77 78 78 77 77 76 74 72 70 69 69 68 68 67 67 68 69 69 69 68 69 71 72 72 70 68 66 65 66 66
58 58 59 59 60 60 61 61 62 63 63 64 64 65 65 66 66 67 68 69 70 70 71 71 71 71 71 72 72 73 73 73 73 73 74 74 75 75 75 75 76 78 78 78 78 78 78 78 77 77 77 77 77 77 78 78 78 78 77 76 74 72 70 69 68 68 67 67 66 67 68 69 69 68 68 68 70 71 71 69 67 65 64 64 65
60 60 61 61 62 62 63 64 64 65 65 65 66 66 67 67 68 69 70 70 70 71 71 71 71 71 72 72 72 73 73 73 73 74 74 75 75 76 76 76 77 78 79 79 79 80 81 80 78 78 78 78 78 79 78 79 79 78 76 74 72 70 68 67 67 67 67 66 66 67 68 69 69 68 67 68 69 70 69 68 66 64 63 63 64
62 62 63 63 64 65 65 65 66 67 67 67 68 68 69 69 70 71 71 71 71 71 71 71 71 72 72 72 73 73 73 74 74 74 75 76 77 77 78 78 78 77 77 76 75 78 81 82 80 79 79 80 79 79 79 80 79 76 73 71 70 68 67 67 67 67 66 66 66 67 68 68 68 67 66 67 67 68 68 67 64 63 63 63 63
65 66 66 66 67 67 67 67 68 69 69 70 70 70 71 71 71 72 72 72 72 72 72 72 72 72 72 73 73 74 75 75 76 77 76 76 77 78 78 78 77 75 74 72 73 77 81 82 81 81 80 80 79 79 80 80 77 74 71 70 70 69 69 68 67 66 66 66 67 67 68 68 67 65 65 65 65 66 67 65 63 62 62 63 62
68 69 69 69 69 69 69 70 70 71 71 71 72 72 73 73 73 73 73 73 73 73 73 73 73 74 74 75 76 77 78 78 79 78 77 77 77 78 77 75 74 74 74 75 77 81 82 81 81 81 80 78 78 79 79 78 75 72 70 70 71 71 70 67 65 65 66 67 67 67 68 67 65 64 63 63 63 65 65 63 61 61 62 62 62
71 72 72 72 72 72 72 72 72 73 73 74 74 74 74 74 74 74 74 74 74 74 74 75 75 76 77 78 79 80 80 80 80 80 80 78 76 72 70 69 70 71 73 75 79 82 82 81 81 80 79 77 77 77 77 76 74 72 72 72 73 72 69 66 65 66 67 67 67 68 68 66 64 62 62 61 61 63 64 61 59 60 61 62 62
74 74 75 75 75 75 75 75 75 75 75 76 76 76 75 75 75 75 75 76 76 76 77 77 78 79 80 80 81 81 82 82 83 82 82 79 74 70 70 73 75 77 78 79 80 82 83 82 79 77 76 76 77 78 77 76 75 74 74 75 75 73 69 66 66 67 67 67 68 69 67 65 62 61 60 59 60 62 62 60 58 59 60 61 62
77 77 77 78 78 77 77 77 77 77 77 77 77 77 77 78 78 78 79 79 79 80 80 80 81 82 82 82 83 83 84 84 84 84 82 81 79 77 78 78 79 79 79 79 78 80 82 82 77 74 74 76 78 78 77 76 75 76 76 76 76 73 69 67 67 67 67 68 69 68 65 63 60 59 58 58 59 61 60 58 57 58 60 61 61
79 79 79 79 79 79 79 79 79 79 79 79 80 80 81 81 82 82 82 82 82 82 83 83 84 85 85 86 86 86 86 86 85 85 85 84 83 81 78 76 75 77 78 79 80 81 82 80 75 73 74 76 77 77 77 77 77 78 77 77 76 72 67 66 67 68 69 69 68 66 63 61 59 58 57 57 59 60 59 57 57 58 59 60 61
81 81 81 82 82 82 82 82 83 83 83 84 84 85 85 85 85 85 85 85 85 85 85 86 86 87 87 87 87 87 87 86 86 85 85 83 82 80 78 77 77 79 81 82 82 82 81 79 76 76 76 77 77 76 77 77 78 78 78 78 75 69 65 65 68 69 69 68 66 63 61 59 57 57 56 57 58 58 57 56 56 57 58 60 61
85 85 85 85 86 86 86 86 86 87 87 87 88 88 88 88 88 88 88 88 88 88 88 89 89 89 89 89 89 88 88 87 86 85 83 82 81 82 82 81 80 80 81 82 82 82 82 81 80 78 77 77 77 77 77 78 78 79 79 77 72 66 64 66 69 69 68 66 64 62 59 57 56 55 55 56 57 57 56 55 56 57 58 59 60
88 89 89 89 89 89 90 90 90 90 90 90 91 91 91 91 92 92 92 92 92 92 92 92 91 91 91 90 90 89 88 87 86 86 85 84 84 85 84 83 81 81 82 83 84 84 84 83 81 79 78 78 78 79 80 81 82 82 80 74 68 65 65 67 68 67 66 64 63 61 58 56 55 54 54 55 56 56 55 55 55 56 58 59 60
90 90 91 91 92 92 93 93 94 94 94 95 95 95 95 95 95 95 95 94 94 94 93 93 92 92 91 91 90 90 89 89 88 87 87 86 86 85 84 82 82 83 84 84 84 84 83 82 81 81 81 82 83 85 85 85 85 84 78 70 66 65 66 65 65 64 63 63 62 60 58 55 54 54 54 55 56 55 55 55 55 56 58 59 60
Wind_Direction
255 256 257 258 259 259 259 260 260 262 263 264 265 266 267 269 270 272 274 275 277 278 280 281 283 284 285 286 287 287 288 289 289 290 291 292 294 295 296 297 298 298 298 298 299 299 300 300 301 301 302 302 302 303 303 304 304 304 304 305 305 305 305 305 306 305 305 305 305 306 306 306 307 307 308 308 308 308 308 308 308 307 307 307 307
254 255 256 257 258 259 259 260 260 261 262 263 264 265 267 268 270 271 273 275 277 279 281 283 284 285 285 286 286 287 287 288 289 290 291 293 294 295 295 296 297 297 298 298 299 300 300 300 301 301 302 302 303 303 304 304 304 304 305 305 305 305 305 305 305 305 305 305 306 306 307 307 308 308 308 307 307 307 308 308 308 308 308 308 308
254 255 256 257 258 258 259 259 260 260 261 262 263 265 266 268 270 273 275 278 280 282 283 284 285 285 285 286 286 286 287 287 289 290 292 293 293 294 295 296 296 297 298 298 299 299 299 300 300 301 302 303 303 303 303 304 304 304 304 304 304 305 305 305 305 305 306 306 306 307 307 307 307 307 307 307 308 308 309 310 310 310 309 309 309
254 255 256 256 257 257 258 258 259 259 260 262 264 266 269 271 274 277 279 281 282 283 284 284 284 284 284 285 285 286 287 288 290 290 291 292 293 294 295 296 296 297 297 298 298 298 299 300 301 302 302 302 303 303 304 304 304 304 304 304 304 304 304 305 306 306 307 307 307 307 307 307 307 307 307 308 309 310 310 311 310 310 310 310 311
254 254 255 255 255 255 256 256 257 259 261 264 267 270 273 275 277 279 281 282 283 283 283 283 283 283 284 284 286 287 288 289 289 290 291 292 293 294 294 295 296 296 297 297 298 298 299 300 301 301 302 302 303 303 304 304 303 303 303 304 304 304 305 306 307 307 307 307 308 307 307 307 308 308 309 309 310 310 310 310 311 311 311 312 312
254 254 254 253 253 253 255 256 259 262 265 268 271 273 276 278 279 280 281 281 281 281 281 282 282 283 284 285 286 287 287 288 289 290 291 292 293 293 294 295 295 296 296 297 298 298 299 300 301 302 302 303 303 303 303 303 303 303 303 304 304 305 306 307 307 307 308 308 307 307 307 308 309 310 310 310 310 310 310 310 311 311 312 313 313
253 253 253 253 254 256 258 260 263 266 269 271 274 275 277 278 279 279 279 279 280 280 281 282 283 283 284 285 285 286 287 288 289 290 291 292 293 294 294 295 295 295 296 296 297 298 299 300 301 302 303 303 302 302 302 302 302 303 303 304 305 306 306 307 307 307 307 307 307 307 308 309 309 310 310 310 310 311 311 312 311 311 312 313 313
253 254 254 256 257 259 262 264 267 269 271 273 275 276 276 277 277 277 278 279 280 281 281 282 282 283 283 284 285 286 287 288 289 290 292 292 293 293 293 293 294 294 296 297 298 299 300 301 301 302 302 301 302 302 302 302 302 303 304 304 305 306 306 306 306 306 306 307 307 308 309 309 309 310 310 310 311 312 313 313 314 313 313 314 314
254 255 257 259 261 263 266 268 269 271 272 273 274 275 275 276 277 277 279 280 280 281 281 281 282 282 283 284 285 286 288 289 290 291 291 291 291 291 292 293 294 295 296 297 298 299 300 300 300 300 300 301 301 301 301 302 302 303 304 305 305 305 305 306 306 306 306 307 307 308 309 309 309 310 311 311 312 313 314 315 315 316 316 316 316
256 258 260 262 264 266 267 269 270 271 272 273 274 274 275 276 277 278 279 279 279 280 280 281 282 283 284 285 286 287 288 289 289 290 290 290 290 291 292 293 294 295 296 297 298 298 299 299 299 299 300 300 301 301 301 302 303 303 304 304 305 305 306 306 306 306 306 307 308 308 309 309 310 311 312 313 314 315 316 316 316 317 317 316 316
258 260 262 264 265 267 268 269 271 271 272 273 273 274 275 276 277 278 278 278 279 280 281 282 283 284 285 285 286 287 287 288 289 289 289 289 290 291 292 293 294 295 296 296 297 297 297 298 299 299 300 300 300 301 301 302 303 303 304 304 305 305 305 305 305 306 307 308 308 309 309 310 311 312 313 314 315 316 317 317 317 318 318 318 318
260 262 263 265 266 268 269 270 271 272 272 273 274 275 276 277 277 278 279 280 281 282 282 282 283 284 284 285 286 287 288 288 288 288 288 289 290 291 292 293 294 295 295 295 296 296 297 298 299 299 299 300 300 301 301 302 303 303 304 304 305 305 305 305 306 307 307 308 309 309 310 311 312 313 314 315 317 317 317 317 318 318 320 320 319
263 265 266 267 269 270 270 271 271 272 273 274 275 276 277 279 280 281 281 282 282 282 282 282 283 284 285 286 287 287 288 287 287 287 287 289 290 291 292 293 293 294 294 295 296 296 297 298 298 299 299 300 301 301 302 302 303 304 304 305 305 304 305 306 307 307 308 309 309 310 311 312 313 315 316 317 317 317 317 318 318 320 321 320 319
266 267 267 268 268 269 269 270 271 272 274 276 277 279 280 281 282 282 282 281 281 281 282 283 285 285 286 287 287 286 286 285 285 286 287 289 290 291 292 292 293 294 294 295 296 297 298 298 298 299 300 300 301 301 302 303 304 304 304 304 304 305 306 307 307 308 309 309 310 311 313 314 315 316 317 317 317 317 318 319 320 321 321 320 320
265 266 266 267 268 269 270 272 273 275 276 278 279 280 281 281 281 281 281 281 281 282 283 284 285 285 285 285 284 284 284 284 285 287 288 289 290 291 291 292 293 294 294 295 296 297 298 298 298 299 300 300 301 301 302 303 304 304 304 304 305 306 307 307 308 309 310 310 312 313 314 315 316 317 317 317 317 318 319 320 321 321 321 321 321
265 266 267 269 270 272 273 274 276 277 279 280 281 281 281 280 280 280 280 280 281 281 282 283 283 283 283 283 283 283 283 284 286 287 288 289 290 291 292 292 293 294 295 296 296 297 297 297 298 299 299 300 300 301 302 303 303 303 303 304 306 307 307 308 308 309 310 312 313 314 315 316 316 316 316 317 318 319 320 322 322 322 322 321 322
267 268 270 271 272 274 275 276 278 279 280 280 280 279 278 278 278 278 279 279 280 281 281 282 282 282 282 282 283 283 284 285 287 288 289 289 290 291 292 292 293 294 295 296 296 296 297 297 297 298 299 299 300 301 302 302 302 303 304 306 306 307 307 308 309 310 311 312 314 315 315 316 316 316 317 318 319 320 321 322 322 322 321 322 323
269 270 271 272 273 274 276 277 278 278 278 278 277 276 276 276 277 277 278 278 279 281 281 282 282 282 283 283 283 284 285 287 288 288 289 289 290 291 292 292 293 294 295 295 295 296 296 296 297 297 298 299 301 301 302 302 303 305 306 306 306 306 307 308 310 311 312 313 314 315 315 315 316 316 317 319 320 321 322 322 322 322 322 323 324
270 270 271 272 273 274 275 276 276 276 275 274 274 274 275 276 276 277 277 279 281 282 283 283 283 283 283 283 284 285 287 288 288 288 289 289 290 291 292 293 293 294 294 294 295 295 295 296 297 298 299 300 301 301 302 304 305 306 306 305 305 306 307 308 310 311 312 313 314 314 315 315 316 317 318 320 320 321 322 322 322 322 323 324 325
270 270 271 272 273 273 273 273 272 272 272 273 274 274 275 275 276 278 280 282 283 284 285 285 285 284 284 285 286 287 287 287 287 288 288 289 290 291 291 292 293 293 293 294 294 295 295 295 297 298 299 300 301 302 304 305 305 305 305 305 305 306 307 308 310 311 312 313 313 314 314 315 316 318 319 320 321 322 323 323 323 323 324 325 326
270 271 271 272 271 271 271 270 271 271 272 274 275 275 276 277 279 281 283 284 285 285 285 285 285 285 285 285 286 286 286 286 287 287 288 289 290 290 291 292 292 292 293 293 294 294 294 296 297 298 300 301 302 304 304 304 304 304 304 304 305 306 307 308 310 311 312 312 313 313 315 316 317 318 319 320 321 322 323 323 323 324 325 326 327
269 270 270 269 269 269 269 270 271 272 273 274 275 276 278 280 282 283 284 285 285 285 285 285 285 285 285 285 286 286 286 286 287 287 288 288 289 290 291 291 291 292 292 293 293 294 295 296 297 299 300 302 303 303 303 303 303 303 303 304 305 307 308 309 310 311 311 312 313 314 316 317 317 318 318 320 322 322 323 323 324 325 326 327 328
267 268 268 268 268 269 269 270 272 273 274 275 276 277 279 281 282 283 284 284 285 285 285 286 285 285 285 285 285 285 286 286 287 287 288 288 289 290 290 290 290 291 292 293 293 294 296 297 298 300 301 302 302 302 302 302 302 303 304 305 306 307 308 309 310 310 311 312 314 315 316 316 316 317 318 320 321 322 323 324 325 326 327 328 328
266 266 267 267 268 269 270 271 273 274 274 275 275 277 279 281 282 283 284 284 285 285 285 285 285 285 285 285 285 285 286 286 287 287 288 288 289 289 289 290 291 291 292 293 294 295 296 298 299 301 302 302 302 301 301 301 302 303 304 305 306 307 308 309 309 310 311 313 314 315 315 315 316 317 318 319 320 321 323 324 326 327 328 328 328
265 265 267 268 269 270 271 272 273 273 273 274 275 277 279 280 282 283 283 283 283 283 283 283 283 284 284 285 285 285 286 286 287 287 287 288 288 289 290 291 291 292 293 294 295 296 297 299 300 301 301 301 301 300 301 302 303 303 304 305 306 307 308 308 309 311 312 313 314 314 314 315 315 317 318 319 320 321 323 325 327 328 328 328 328
265 265 267 268 268 269 270 271 271 272 272 273 274 276 278 280 281 281 282 282 282 282 282 282 282 283 284 284 284 285 285 286 286 287 287 288 288 289 290 291 292 293 294 295 296 297 298 299 300 301 300 300 300 300 301 302 303 303 304 305 306 307 307 308 310 311 312 313 313 313 314 314 316 317 318 319 320 322 324 326 328 328 328 327 327
265 266 267 267 268 269 270 270 271 272 273 274 275 276 278 279 279 280 280 280 281 281 282 282 283 283 284 284 284 284 285 285 286 287 288 288 289 290 291 292 293 294 294 295 296 297 298 299 299 299 299 299 300 300 301 302 302 303 304 305 306 306 307 309 310 311 312 312 312 313 313 314 316 317 318 320 322 324 326 327 328 328 327 327 326
266 267 268 268 269 270 270 271 272 273 274 274 275 277 278 278 279 279 279 280 281 282 283 283 283 284 284 284 284 285 286 287 287 288 288 289 290 290 291 291 292 293 294 295 296 296 297 298 298 298 298 299 300 301 301 302 302 303 304 305 305 306 307 309 310 311 311 311 312 312 313 315 316 318 320 322 323 325 327 328 329 328 327 327 326
267 267 268 268 269 270 271 272 273 274 274 275 276 277 278 278 279 279 279 280 281 282 282 283 283 283 284 284 285 286 287 287 288 288 288 289 289 290 290 291 292 293 294 295 296 296 297 297 297 298 298 299 300 300 301 302 302 303 303 304 305 307 308 309 310 310 311 311 312 313 314 315 317 319 321 323 324 326 328 329 329 328 327 327 326
266 266 267 268 269 270 271 272 273 274 275 276 277 278 278 278 278 279 279 280 281 281 282 282 283 283 284 285 286 286 287 287 287 287 288 288 288 289 290 291 292 293 294 295 295 295 295 296 296 297 298 299 299 300 301 301 302 302 303 304 305 307 308 309 309 310 310 311 311 313 314 316 318 320 322 323 325 327 329 329 328 328 327 327 327
266 266 267 268 269 270 272 273 274 275 276 277 277 278 278 278 278 279 279 280 281 281 281 282 283 283 284 285 285 286 286 286 286 286 287 287 288 289 290 291 292 293 294 294 294 294 294 295 296 297 298 298 299 300 300 301 301 302 303 304 306 307 307 308 309 309 310 311 311 313 315 317 319 320 322 323 325 327 329 329 328 327 327 326 327
267 268 269 270 271 272 273 274 275 275 276 277 277 277 278 278 279 279 280 280 281 281 282 282 283 283 284 284 284 285 285 285 286 286 286 287 288 289 289 290 291 292 292 292 292 292 294 295 296 296 297 298 298 299 299 300 300 302 303 304 305 306 307 308 308 309 309 310 312 313 315 317 319 321 322 323 325 327 329 329 327 327 327 326 327
268 269 270 271 272 273 273 274 275 276 276 277 277 278 278 279 279 279 280 280 281 281 282 282 282 282 283 283 284 284 284 285 285 286 286 287 288 289 289 290 290 291 291 291 291 292 294 295 295 296 296 297 298 298 298 299 301 302 303 304 304 305 306 307 308 309 309 311 312 313 315 317 319 321 321 323 325 327 329 328 327 327 326 326 327
268 269 270 271 272 273 274 274 275 276 276 277 277 278 278 278 279 279 280 280 280 280 280 281 281 281 282 282 283 283 284 284 284 285 285 286 286 287 288 289 289 290 290 290 291 292 294 294 294 295 296 296 297 297 298 299 300 301 302 303 304 305 306 307 308 309 309 310 312 314 315 317 319 320 321 322 325 327 329 328 327 326 326 326 327
269 269 270 271 272 273 274 274 275 275 276 276 276 277 277 277 278 278 279 279 279 279 279 279 280 280 281 282 282 283 283 284 284 285 285 285 286 287 288 288 289 289 289 289 291 292 293 293 293 294 295 295 296 297 298 299 300 301 302 303 304 305 306 307 308 308 309 310 312 314 315 317 319 320 320 322 324 327 328 327 326 326 325 325 327
269 270 271 272 273 273 274 274 274 275 275 275 276 276 276 277 277 277 277 278 278 278 279 279 280 281 281 282 282 282 282 283 283 284 285 285 286 287 287 287 287 287 288 290 291 292 292 292 293 293 294 294 295 296 297 298 299 301 302 303 304 305 306 307 307 307 308 310 312 313 315 317 318 319 319 321 324 326 327 327 326 325 324 325 327
270 271 272 273 273 274 274 274 274 274 275 275 276 276 276 277 277 277 278 278 278 278 279 279 280 280 280 281 281 281 282 282 283 283 284 284 285 285 286 286 287 288 289 291 291 291 291 291 292 292 293 294 295 296 297 299 300 301 302 303 303 304 305 306 306 306 308 309 311 312 314 316 317 317 318 320 323 325 326 326 325 324 323 325 327
271 272 273 273 273 273 273 274 274 274 275 275 276 276 277 278 278 278 278 278 278 278 279 279 279 280 280 281 281 281 282 282 283 284 284 284 285 286 287 287 288 289 290 291 291 290 290 290 291 291 293 294 295 297 298 299 300 301 302 302 303 304 305 305 305 306 308 309 310 312 314 315 316 316 317 319 322 324 325 324 323 322 322 324 326
271 272 272 273 273 273 273 274 274 275 276 276 277 277 278 278 278 278 278 278 278 278 279 279 279 280 280 280 280 281 281 282 282 283 283 284 284 286 287 288 289 289 289 289 289 289 289 289 290 292 293 295 296 297 298 299 300 301 301 302 303 303 304 304 305 306 307 308 309 311 313 314 314 315 316 318 321 323 324 323 322 321 322 324 326
271 271 272 272 272 273 273 274 275 276 276 277 277 278 278 278 278 278 278 278 279 279 279 279 279 280 280 280 280 281 281 281 282 283 284 284 286 287 287 288 288 287 287 288 289 289 289 290 291 293 294 295 296 297 298 298 299 300 301 302 303 303 303 303 304 305 306 307 309 310 312 313 313 313 315 318 320 322 323 321 320 320 321 323 326
271 271 272 272 272 273 274 275 275 276 277 277 277 277 277 277 277 277 278 278 279 279 279 279 279 279 279 280 280 280 281 282 282 283 285 286 287 287 287 287 286 286 287 288 288 288 289 291 293 294 294 295 296 296 297 298 298 300 301 303 303 302 302 302 303 305 305 306 308 309 310 311 311 312 314 317 319 321 321 320 319 318 320 322 325
271 271 272 272 272 273 274 275 275 276 276 276 277 277 277 277 277 277 278 278 278 278 279 279 279 279 279 279 279 280 281 282 284 285 286 286 286 286 286 286 286 286 285 284 283 284 287 290 292 293 293 295 296 296 296 297 298 299 302 303 303 301 301 301 302 303 304 305 306 308 309 309 309 310 313 316 318 320 320 319 317 317 319 322 324
271 271 272 273 274 274 275 275 276 276 276 277 277 277 277 277 277 277 278 278 278 278 278 278 278 278 279 279 280 281 282 284 285 285 286 285 285 285 286 286 286 285 284 283 283 285 287 290 291 292 293 294 295 295 295 296 297 298 300 302 302 301 300 300 301 302 303 304 305 306 306 306 307 310 313 315 317 319 319 317 316 316 318 321 323
272 272 273 274 275 276 276 276 277 277 277 277 277 278 278 278 278 278 278 278 278 278 278 279 279 280 280 281 282 283 284 285 285 285 285 285 285 284 283 282 281 280 280 281 283 285 287 289 291 292 292 293 293 293 292 293 294 296 297 300 302 301 299 299 299 300 301 302 303 304 304 304 305 309 312 314 316 318 318 316 315 315 317 320 322
273 274 275 276 277 277 278 278 278 278 279 279 279 279 279 278 278 278 278 278 278 278 279 280 281 281 282 283 284 284 285 285 284 284 284 283 281 279 277 276 276 277 279 281 281 282 286 289 291 291 290 290 290 289 288 288 290 292 295 299 301 301 298 296 297 298 299 300 301 301 301 302 304 308 311 312 315 317 316 314 313 315 317 319 321
275 276 277 277 278 278 278 278 278 278 278 278 278 278 278 277 277 278 278 279 280 280 281 282 282 283 283 283 283 283 283 282 282 281 280 280 279 279 279 279 280 280 281 280 279 281 285 289 289 287 286 286 286 285 285 284 287 290 294 298 300 299 296 294 295 296 297 298 298 298 299 301 303 307 309 311 314 315 314 313 312 314 315 318 320
276 277 277 277 278 278 278 277 277 277 277 277 277 277 277 277 278 279 279 280 281 281 282 282 282 282 282 281 281 280 280 280 280 280 280 281 281 281 281 280 278 277 277 277 278 281 284 285 284 282 281 281 281 281 281 283 286 290 294 297 299 297 294 293 293 294 294 295 295 295 297 299 302 306 308 310 312 313 313 311 311 312 314 316 319
276 276 276 276 276 276 276 276 277 277 277 277 277 277 278 278 279 279 279 280 280 280 280 280 280 280 279 279 279 279 279 280 280 281 281 281 281 280 279 277 275 275 276 278 280 282 283 282 280 279 278 278 278 278 281 285 288 292 295 296 296 294 291 290 291 292 292 291 292 293 295 298 301 304 306 308 311 312 311 309 310 311 313 315 317
276 276 276 276 277 277 277 278 278 278 278 279 279 279 279 279 279 279 279 278 278 278 278 277 277 278 278 278 279 279 280 280 280 280 280 279 278 278 278 278 277 276 277 278 279 280 279 279 278 277 276 276 276 279 283 287 290 292 294 294 293 291 289 289 289 289 289 289 290 292 293 296 300 303 305 307 309 310 309 308 309 310 312 314 316
277 278 278 279 279 279 279 280 280 280 279 279 279 279 279 279 278 278 278 278 278 277 277 277 277 277 278 278 278 278 279 279 279 279 279 278 278 278 278 278 277 276 275 275 276 276 276 276 275 275 275 276 278 280 284 287 290 291 292 291 289 288 287 287 287 287 286 286 288 290 291 294 298 301 303 305 307 308 307 307 307 309 311 313 315
279 279 279 280 280 280 280 280 279 279 279 279 278 278 278 278 278 277 277 277 277 277 277 277 277 278 278 278 278 278 278 278 278 278 278 278 277 278 277 276 274 273 273 274 274 274 274 274 274 275 276 277 279 282 285 287 288 288 288 286 285 285 285 286 287 286 283 283 285 288 289 293 297 299 301 304 306 306 306 305 306 308 310 312 314
Height
5803 5804 5804 5804 5805 5805 5805 5805 5805 5805 5805 5805 5805 5805 5805 5805 5804 5804 5804 5803 5802 5802 5801 5800 5800 5799 5798 5796 5795 5793 5791 5790 5788 5786 5784 5782 5780 5778 5775 5773 5770 5768 5766 5764 5762 5760 5758 5756 5754 5751 5749 5746 5744 5741 5739 5736 5733 5730 5727 5724 5721 5718 5716 5713 5711 5708 5701 5695 5692 5689 5686 5683 5680 5676 5674 5669 5665 5661 5656 5650 5646 5640 5635 5630 5626
5798 5799 5799 5800 5800 5800 5800 5800 5800 5800 5800 5800 5800 5800 5800 5800 5800 5799 5799 5798 5798 5797 5796 5795 5794 5793 5792 5791 5789 5787 5785 5784 5782 5780 5777 5776 5774 5772 5769 5767 5765 5763 5761 5759 5757 5755 5752 5750 5748 5745 5742 5740 5737 5734 5732 5729 5726 5722 5719 5716 5713 5710 5707 5704 5702 5699 5695 5689 5684 5680 5676 5673 5671 5668 5665 5662 5659 5655 5650 5644 5638 5632 5626 5621 5615
5793 5794 5794 5794 5795 5795 5795 5795 5795 5795 5795 5795 5796 5795 5795 5795 5795 5795 5794 5793 5793 5791 5790 5789 5788 5787 5786 5784 5783 5781 5779 5777 5775 5774 5771 5769 5768 5766 5764 5762 5760 5758 5755 5753 5751 5749 5747 5744 5741 5739 5736 5733 5730 5727 5725 5721 5718 5715 5711 5708 5705 5701 5698 5695 5693 5690 5687 5682 5677 5673 5669 5665 5662 5659 5657 5654 5651 5648 5644 5638 5631 5624 5617 5611 5604
5788 5788 5789 5789 5789 5790 5790 5790 5790 5790 5790 5791 5791 5790 5790 5790 5790 5789 5789 5788 5787 5786 5784 5783 5782 5781 5780 5778 5776 5774 5772 5771 5769 5767 5766 5764 5762 5760 5758 5756 5754 5752 5750 5748 5746 5743 5741 5738 5735 5732 5730 5727 5723 5720 5717 5714 5710 5707 5704 5700 5697 5693 5690 5686 5683 5680 5677 5674 5669 5665 5661 5657 5653 5651 5649 5646 5643 5640 5636 5631 5625 5617 5610 5603 5594
5783 5783 5784 5784 5784 5784 5785 5785 5785 5785 5785 5785 5786 5785 5785 5785 5784 5784 5783 5782 5781 5780 5778 5777 5775 5774 5773 5771 5769 5767 5766 5764 5763 5761 5759 5758 5756 5754 5752 5750 5748 5746 5744 5741 5739 5737 5734 5731 5729 5726 5723 5720 5716 5713 5710 5707 5703 5699 5696 5693 5689 5685 5681 5678 5675 5671 5668 5664 5660 5656 5652 5648 5645 5641 5638 5637 5635 5633 5630 5625 5617 5608 5600 5594 5586
5778 5778 5778 5779 5779 5779 5780 5780 5780 5780 5780 5780 5780 5780 5780 5779 5778 5778 5777 5776 5775 5773 5772 5770 5769 5767 5766 5764 5763 5761 5760 5758 5756 5755 5753 5752 5750 5748 5746 5744 5742 5739 5737 5735 5733 5730 5728 5725 5722 5719 5716 5713 5709 5706 5703 5700 5696 5692 5688 5685 5681 5677 5673 5670 5666 5663 5658 5654 5651 5648 5643 5639 5636 5632 5628 5625 5623 5622 5622 5621 5615 5605 5593 5583 5573
5772 5773 5773 5773 5774 5774 5775 5775 5775 5775 5775 5775 5775 5774 5774 5773 5772 5771 5770 5769 5768 5766 5765 5764 5762 5761 5760 5758 5757 5755 5754 5752 5751 5749 5748 5746 5744 5742 5740 5737 5735 5733 5731 5728 5726 5723 5721 5718 5715 5712 5709 5706 5702 5699 5695 5692 5688 5684 5681 5677 5673 5669 5665 5661 5658 5654 5650 5645 5642 5638 5635 5630 5627 5623 5619 5615 5611 5607 5605 5606 5606 5602 5593 5580 5564
5767 5767 5768 5768 5769 5769 5769 5770 5770 5770 5770 5769 5769 5768 5768 5767 5765 5764 5763 5762 5761 5760 5759 5757 5756 5755 5754 5752 5751 5749 5748 5746 5745 5743 5741 5739 5737 5735 5733 5731 5728 5726 5724 5721 5719 5716 5713 5711 5708 5705 5702 5698 5695 5691 5688 5684 5680 5677 5673 5669 5665 5661 5657 5653 5650 5646 5642 5637 5633 5629 5626 5621 5618 5614 5609 5604 5601 5598 5593 5589 5587 5587 5585 5577 5562
5761 5762 5762 5763 5763 5763 5764 5764 5764 5764 5763 5763 5762 5761 5760 5760 5759 5758 5757 5756 5755 5754 5753 5751 5750 5749 5747 5746 5745 5743 5741 5740 5738 5737 5735 5733 5731 5728 5726 5724 5722 5719 5717 5714 5712 5709 5706 5704 5701 5698 5694 5691 5688 5684 5680 5676 5673 5669 5665 5662 5658 5654 5650 5645 5642 5638 5634 5629 5625 5621 5617 5612 5608 5606 5602 5596 5590 5586 5583 5578 5574 5571 5568 5567 5558
5756 5756 5756 5757 5757 5758 5758 5758 5758 5757 5757 5756 5756 5755 5754 5753 5753 5752 5751 5750 5749 5748 5746 5745 5744 5742 5741 5740 5738 5736 5735 5733 5732 5730 5728 5726 5724 5721 5719 5717 5715 5712 5710 5707 5705 5702 5700 5697 5694 5691 5687 5684 5680 5677 5673 5670 5666 5662 5659 5655 5651 5647 5642 5638 5633 5630 5626 5621 5617 5613 5609 5604 5599 5596 5593 5588 5581 5575 5571 5567 5563 5560 5555 5552 5549
5750 5750 5751 5751 5751 5751 5752 5751 5751 5751 5750 5750 5749 5749 5748 5748 5747 5746 5745 5744 5742 5741 5740 5739 5737 5736 5735 5733 5732 5730 5728 5727 5725 5723 5721 5719 5716 5714 5712 5710 5708 5706 5703 5701 5698 5695 5693 5690 5687 5684 5680 5677 5674 5670 5667 5663 5659 5656 5652 5648 5644 5640 5636 5631 5627 5623 5618 5614 5609 5605 5601 5596 5590 5586 5582 5579 5573 5566 5561 5556 5551 5548 5543 5536 5531
5744 5745 5745 5745 5745 5745 5745 5745 5745 5744 5744 5743 5743 5742 5742 5741 5741 5740 5738 5737 5736 5735 5733 5732 5731 5730 5728 5727 5725 5723 5722 5720 5718 5716 5714 5711 5709 5707 5705 5703 5701 5699 5697 5694 5691 5688 5686 5683 5680 5677 5674 5670 5667 5663 5660 5656 5652 5649 5645 5641 5637 5633 5629 5624 5620 5615 5611 5606 5601 5596 5593 5588 5582 5576 5572 5569 5565 5559 5553 5547 5541 5536 5531 5522 5513
5738 5738 5739 5739 5739 5740 5739 5739 5738 5738 5738 5737 5737 5737 5736 5735 5734 5733 5732 5731 5729 5728 5726 5725 5724 5723 5722 5720 5718 5717 5715 5713 5711 5709 5707 5705 5703 5701 5699 5697 5695 5692 5690 5687 5685 5682 5679 5676 5673 5670 5667 5663 5660 5656 5653 5649 5645 5641 5637 5633 5629 5625 5620 5616 5611 5607 5602 5598 5593 5587 5583 5579 5574 5568 5562 5557 5554 5550 5545 5540 5534 5527 5521 5513 5503
5732 5732 5733 5733 5733 5733 5733 5733 5732 5732 5732 5731 5731 5731 5730 5729 5728 5726 5725 5724 5722 5721 5720 5719 5718 5716 5715 5713 5711 5710 5708 5706 5704 5702 5700 5698 5696 5694 5693 5690 5688 5686 5683 5680 5678 5675 5673 5669 5666 5663 5660 5656 5653 5649 5646 5642 5638 5634 5629 5625 5621 5617 5612 5608 5603 5598 5593 5588 5584 5579 5573 5569 5564 5559 5554 5549 5544 5539 5533 5528 5523 5519 5514 5507 5497
5726 5726 5727 5727 5727 5727 5727 5727 5726 5726 5726 5726 5725 5725 5724 5722 5721 5719 5718 5717 5715 5715 5713 5713 5712 5710 5708 5707 5705 5703 5701 5699 5697 5695 5693 5692 5689 5687 5685 5683 5681 5678 5676 5673 5671 5668 5666 5662 5659 5656 5653 5649 5646 5642 5639 5635 5631 5627 5622 5618 5614 5609 5605 5600 5595 5590 5585 5580 5575 5570 5565 5560 5555 5550 5546 5541 5535 5528 5522 5515 5509 5505 5503 5499 5492
5720 5720 5721 5721 5721 5721 5721 5721 5720 5720 5720 5720 5719 5718 5717 5716 5714 5713 5712 5710 5709 5708 5707 5706 5705 5703 5702 5700 5698 5696 5694 5692 5690 5688 5687 5685 5682 5680 5678 5676 5673 5671 5669 5666 5664 5661 5658 5655 5652 5649 5646 5643 5639 5635 5632 5628 5624 5620 5615 5610 5606 5602 5597 5593 5588 5583 5578 5572 5567 5562 5557 5551 5546 5541 5536 5531 5526 5519 5512 5505 5498 5493 5490 5486 5483
5715 5715 5715 5715 5715 5715 5715 5715 5715 5714 5714 5713 5712 5711 5710 5709 5708 5707 5705 5704 5703 5702 5701 5700 5699 5697 5695 5693 5691 5688 5687 5685 5683 5682 5679 5677 5675 5673 5671 5669 5666 5664 5661 5659 5656 5653 5650 5648 5644 5642 5638 5635 5632 5628 5625 5621 5617 5612 5608 5603 5599 5595 5590 5585 5581 5576 5571 5565 5560 5554 5549 5544 5538 5532 5527 5521 5515 5509 5503 5497 5491 5485 5479 5474 5470
5710 5710 5710 5709 5709 5709 5709 5709 5708 5708 5707 5707 5705 5704 5703 5702 5702 5701 5699 5698 5697 5696 5695 5693 5692 5690 5687 5685 5683 5681 5679 5678 5676 5674 5672 5670 5668 5666 5664 5661 5659 5657 5654 5651 5648 5645 5643 5640 5637 5634 5631 5628 5624 5620 5617 5613 5609 5605 5601 5596 5592 5588 5584 5579 5574 5569 5564 5558 5553 5547 5542 5536 5530 5524 5518 5512 5506 5499 5493 5487 5482 5475 5469 5462 5455
5704 5703 5703 5703 5703 5703 5703 5702 5702 5701 5700 5699 5698 5698 5697 5696 5696 5694 5693 5692 5691 5690 5688 5686 5684 5682 5680 5678 5676 5674 5672 5671 5669 5667 5665 5663 5661 5659 5656 5654 5651 5649 5646 5643 5641 5638 5635 5632 5629 5626 5623 5620 5616 5612 5609 5605 5602 5597 5594 5590 5586 5581 5577 5573 5568 5563 5558 5552 5547 5541 5535 5529 5523 5516 5510 5504 5497 5491 5484 5477 5471 5465 5458 5451 5443
5697 5696 5697 5697 5697 5697 5696 5695 5694 5694 5693 5692 5692 5692 5691 5690 5689 5688 5687 5686 5685 5683 5681 5679 5677 5674 5672 5671 5669 5667 5665 5663 5661 5660 5658 5656 5654 5651 5649 5646 5644 5641 5639 5636 5634 5631 5628 5625 5622 5619 5616 5613 5609 5605 5601 5597 5594 5591 5587 5583 5579 5575 5571 5567 5562 5557 5552 5547 5541 5536 5529 5523 5516 5509 5503 5496 5490 5483 5475 5468 5461 5454 5447 5441 5434
5690 5690 5690 5691 5690 5689 5689 5688 5687 5687 5686 5686 5686 5685 5685 5684 5683 5682 5680 5679 5677 5675 5673 5671 5669 5667 5665 5664 5662 5660 5658 5656 5654 5652 5651 5649 5646 5644 5641 5639 5636 5634 5631 5629 5626 5623 5620 5617 5614 5611 5608 5605 5602 5598 5594 5590 5587 5584 5580 5576 5573 5568 5564 5560 5555 5550 5546 5541 5535 5530 5523 5516 5509 5502 5495 5489 5483 5475 5468 5461 5453 5445 5438 5430 5424
5683 5683 5683 5683 5682 5682 5681 5681 5681 5680 5680 5680 5680 5679 5679 5678 5676 5675 5673 5671 5669 5667 5666 5664 5662 5660 5658 5657 5655 5653 5651 5649 5647 5645 5643 5641 5639 5636 5634 5632 5629 5627 5624 5622 5619 5616 5613 5609 5606 5603 5600 5597 5594 5590 5587 5583 5580 5576 5573 5569 5565 5561 5557 5552 5548 5543 5539 5534 5528 5522 5516 5509 5503 5496 5489 5483 5477 5469 5462 5454 5446 5438 5430 5420 5412
5676 5676 5676 5676 5675 5675 5675 5675 5675 5675 5674 5674 5673 5673 5672 5671 5669 5667 5666 5664 5662 5660 5659 5657 5655 5653 5651 5649 5647 5645 5644 5642 5640 5637 5635 5633 5631 5629 5627 5624 5622 5619 5617 5614 5611 5608 5605 5601 5598 5595 5592 5589 5585 5582 5579 5576 5572 5568 5565 5561 5557 5553 5549 5545 5540 5536 5531 5527 5521 5514 5509 5503 5497 5491 5485 5478 5472 5465 5458 5450 5441 5433 5424 5414 5405
5669 5669 5669 5668 5668 5668 5668 5668 5668 5668 5668 5667 5667 5666 5665 5663 5662 5660 5658 5656 5655 5653 5651 5650 5648 5646 5644 5642 5640 5638 5636 5634 5632 5630 5628 5626 5623 5621 5619 5616 5614 5611 5609 5606 5603 5599 5596 5593 5590 5586 5583 5580 5577 5574 5571 5567 5564 5560 5557 5553 5549 5545 5541 5537 5533 5529 5524 5519 5513 5507 5502 5497 5492 5486 5480 5474 5468 5462 5454 5445 5436 5428 5419 5410 5401
5663 5662 5662 5662 5662 5662 5662 5662 5662 5661 5661 5660 5659 5658 5657 5656 5654 5653 5651 5649 5647 5646 5644 5642 5640 5638 5636 5634 5632 5630 5628 5626 5624 5622 5620 5617 5615 5612 5610 5608 5605 5603 5600 5597 5594 5591 5587 5584 5581 5578 5575 5571 5568 5565 5562 5559 5556 5552 5548 5544 5541 5537 5533 5529 5525 5521 5516 5511 5506 5500 5495 5490 5484 5478 5473 5468 5462 5456 5450 5442 5432 5423 5416 5407 5398
5656 5656 5656 5656 5656 5656 5656 5655 5655 5654 5654 5653 5652 5651 5649 5648 5647 5645 5644 5642 5640 5638 5636 5634 5632 5630 5628 5626 5624 5622 5620 5617 5615 5613 5611 5609 5607 5604 5602 5600 5597 5595 5592 5588 5585 5582 5578 5575 5572 5569 5566 5563 5560 5557 5554 5550 5547 5544 5540 5536 5533 5529 5525 5522 5517 5513 5508 5503 5498 5493 5487 5482 5476 5470 5465 5460 5455 5450 5444 5438 5431 5422 5414 5407 5398
5649 5649 5649 5649 5649 5649 5648 5648 5647 5647 5646 5645 5644 5643 5642 5640 5639 5637 5636 5634 5632 5630 5628 5626 5624 5622 5620 5618 5616 5614 5612 5610 5607 5605 5603 5601 5598 5596 5594 5591 5589 5586 5583 5580 5576 5573 5570 5566 5564 5560 5557 5554 5552 5549 5545 5542 5539 5536 5532 5528 5525 5521 5517 5514 5509 5505 5501 5496 5491 5485 5480 5474 5469 5463 5457 5451 5446 5441 5436 5431 5425 5419 5412 5405 5398
5642 5642 5642 5642 5641 5641 5641 5640 5639 5639 5638 5637 5636 5635 5634 5632 5631 5629 5627 5626 5624 5622 5620 5618 5616 5614 5612 5610 5608 5606 5604 5602 5600 5597 5595 5592 5590 5588 5585 5583 5580 5577 5574 5571 5567 5564 5561 5558 5555 5552 5549 5546 5543 5540 5537 5534 5530 5527 5524 5520 5517 5513 5509 5505 5501 5497 5493 5488 5483 5478 5472 5466 5461 5455 5449 5443 5438 5433 5428 5422 5417 5411 5405 5399 5393
5635 5635 5634 5634 5633 5633 5633 5632 5631 5631 5630 5629 5628 5627 5625 5624 5623 5621 5619 5617 5615 5614 5612 5610 5607 5605 5604 5602 5600 5598 5596 5594 5591 5589 5586 5584 5581 5579 5577 5574 5571 5568 5565 5562 5559 5555 5553 5549 5546 5544 5541 5538 5535 5531 5528 5525 5522 5519 5515 5512 5508 5504 5500 5496 5492 5488 5484 5480 5475 5470 5464 5459 5453 5448 5442 5436 5430 5425 5420 5415 5409 5404 5398 5392 5385
5627 5626 5626 5626 5625 5625 5624 5624 5623 5622 5621 5620 5619 5618 5617 5616 5614 5612 5610 5609 5607 5605 5603 5601 5599 5597 5596 5594 5592 5590 5588 5585 5583 5580 5578 5575 5573 5571 5568 5565 5562 5559 5556 5553 5550 5547 5544 5541 5538 5536 5533 5529 5526 5523 5520 5516 5513 5510 5506 5503 5499 5496 5492 5488 5484 5479 5475 5471 5467 5462 5457 5452 5446 5441 5436 5430 5424 5419 5413 5408 5402 5397 5391 5386 5379
5618 5618 5618 5617 5617 5616 5615 5615 5614 5613 5612 5612 5610 5609 5608 5606 5605 5604 5602 5600 5598 5597 5595 5593 5591 5589 5587 5585 5583 5581 5579 5576 5574 5571 5569 5566 5564 5562 5559 5556 5554 5551 5548 5545 5542 5539 5536 5534 5531 5528 5525 5521 5518 5514 5511 5508 5505 5501 5498 5494 5491 5487 5484 5480 5475 5471 5466 5462 5458 5454 5450 5445 5439 5434 5430 5425 5419 5413 5407 5401 5396 5390 5384 5378 5373
5609 5609 5609 5608 5608 5607 5607 5606 5605 5604 5604 5603 5601 5600 5599 5598 5596 5595 5593 5592 5590 5588 5586 5585 5582 5580 5578 5576 5574 5572 5569 5567 5564 5562 5560 5558 5555 5553 5550 5548 5545 5542 5540 5537 5534 5531 5528 5526 5523 5519 5516 5512 5509 5506 5502 5499 5496 5493 5489 5486 5482 5479 5475 5471 5467 5462 5458 5454 5450 5446 5442 5437 5432 5427 5422 5418 5413 5407 5402 5396 5390 5385 5379 5373 5366
5601 5600 5600 5599 5599 5598 5597 5597 5596 5595 5595 5594 5592 5592 5590 5589 5588 5586 5584 5583 5581 5579 5578 5576 5574 5572 5569 5567 5565 5562 5560 5558 5555 5553 5551 5549 5546 5544 5541 5538 5536 5534 5532 5529 5525 5523 5520 5518 5514 5511 5507 5504 5501 5497 5494 5490 5487 5483 5480 5477 5474 5470 5467 5463 5458 5454 5450 5446 5442 5438 5435 5430 5426 5420 5415 5410 5406 5401 5395 5390 5385 5379 5374 5368 5362
5591 5591 5590 5590 5589 5589 5588 5588 5587 5586 5585 5584 5583 5582 5581 5580 5578 5577 5575 5574 5572 5571 5569 5567 5565 5563 5560 5558 5555 5553 5551 5549 5547 5544 5542 5540 5537 5535 5532 5530 5528 5526 5523 5520 5517 5515 5512 5509 5505 5502 5499 5495 5492 5488 5485 5481 5478 5474 5471 5468 5465 5462 5458 5454 5450 5445 5441 5438 5434 5431 5427 5423 5419 5414 5409 5404 5399 5394 5389 5383 5378 5373 5368 5363 5357
5582 5582 5581 5580 5580 5579 5579 5578 5577 5576 5576 5574 5573 5572 5571 5570 5569 5567 5566 5565 5563 5562 5560 5558 5556 5554 5551 5549 5546 5544 5542 5540 5538 5535 5533 5530 5527 5525 5523 5521 5519 5517 5514 5511 5509 5507 5503 5499 5496 5493 5490 5487 5483 5480 5477 5473 5470 5466 5463 5459 5456 5453 5449 5445 5442 5437 5433 5430 5426 5422 5419 5415 5411 5407 5403 5398 5393 5388 5383 5378 5372 5367 5362 5357 5352
5573 5573 5572 5572 5571 5570 5570 5569 5568 5567 5566 5565 5564 5562 5561 5560 5559 5558 5557 5555 5554 5552 5550 5548 5546 5544 5541 5539 5537 5534 5533 5531 5529 5526 5523 5520 5517 5516 5515 5512 5509 5507 5504 5502 5500 5497 5494 5490 5487 5484 5481 5478 5475 5472 5468 5465 5461 5458 5454 5450 5447 5444 5441 5437 5433 5429 5425 5422 5418 5414 5411 5408 5404 5400 5396 5391 5386 5382 5377 5372 5367 5361 5356 5351 5346
5564 5564 5563 5562 5562 5561 5560 5559 5559 5558 5557 5555 5554 5553 5552 5551 5550 5548 5547 5545 5544 5542 5541 5539 5537 5534 5532 5529 5526 5524 5523 5521 5519 5517 5515 5511 5509 5508 5506 5502 5499 5496 5495 5493 5490 5487 5484 5480 5477 5475 5471 5469 5466 5463 5460 5456 5452 5449 5445 5442 5438 5435 5432 5429 5425 5421 5417 5414 5410 5407 5403 5400 5397 5393 5389 5385 5380 5375 5370 5366 5361 5356 5351 5346 5341
5555 5555 5554 5553 5552 5552 5551 5550 5549 5548 5547 5546 5544 5543 5542 5541 5540 5538 5537 5536 5534 5533 5531 5529 5527 5525 5522 5520 5516 5514 5512 5510 5508 5507 5505 5501 5499 5497 5496 5493 5489 5486 5485 5483 5480 5477 5474 5470 5468 5465 5462 5460 5457 5454 5451 5447 5444 5440 5437 5433 5429 5426 5423 5420 5417 5413 5409 5406 5402 5399 5396 5393 5389 5386 5383 5378 5374 5369 5364 5360 5356 5351 5346 5340 5335
5546 5545 5544 5544 5543 5542 5541 5540 5539 5538 5537 5536 5534 5533 5532 5531 5530 5529 5527 5526 5524 5523 5521 5519 5517 5515 5513 5509 5506 5504 5502 5500 5499 5497 5495 5492 5489 5488 5486 5484 5480 5476 5474 5472 5470 5467 5464 5460 5458 5456 5453 5451 5448 5445 5442 5438 5435 5431 5428 5424 5421 5418 5415 5411 5408 5405 5401 5398 5395 5392 5389 5385 5382 5379 5375 5372 5367 5363 5358 5354 5349 5345 5341 5336 5331
5536 5536 5535 5534 5533 5532 5531 5530 5529 5527 5526 5525 5524 5523 5522 5521 5520 5518 5517 5515 5514 5512 5511 5509 5507 5505 5502 5499 5496 5494 5491 5490 5489 5487 5485 5482 5480 5478 5476 5474 5470 5466 5462 5460 5458 5456 5452 5450 5449 5447 5444 5441 5438 5436 5433 5429 5426 5423 5419 5416 5413 5410 5407 5403 5400 5397 5393 5390 5388 5385 5381 5378 5375 5371 5368 5365 5361 5357 5352 5348 5343 5339 5335 5331 5326
5526 5525 5525 5524 5523 5522 5521 5520 5518 5517 5516 5515 5514 5513 5512 5510 5509 5507 5505 5504 5503 5501 5500 5498 5496 5494 5491 5489 5486 5484 5481 5479 5478 5477 5475 5473 5470 5467 5466 5463 5460 5456 5452 5449 5447 5444 5441 5440 5439 5437 5434 5431 5429 5426 5423 5420 5417 5414 5411 5408 5404 5401 5398 5395 5392 5389 5386 5383 5380 5377 5374 5371 5368 5365 5361 5357 5354 5350 5346 5341 5337 5333 5329 5325 5321
5516 5515 5514 5513 5513 5512 5511 5510 5508 5507 5506 5504 5503 5502 5501 5499 5498 5496 5494 5493 5492 5490 5489 5487 5485 5483 5480 5478 5476 5473 5471 5469 5467 5466 5466 5463 5460 5457 5454 5451 5448 5445 5443 5440 5438 5435 5432 5431 5429 5427 5424 5422 5419 5417 5414 5410 5408 5405 5402 5399 5396 5393 5390 5387 5384 5381 5378 5375 5372 5370 5367 5364 5361 5358 5354 5351 5347 5343 5339 5335 5330 5326 5323 5319 5316
5504 5504 5503 5502 5502 5501 5500 5499 5497 5496 5494 5493 5492 5491 5489 5488 5486 5485 5483 5482 5480 5479 5477 5476 5474 5472 5470 5467 5465 5462 5460 5459 5457 5456 5455 5453 5450 5447 5444 5440 5437 5435 5432 5430 5428 5426 5423 5422 5420 5417 5415 5412 5409 5406 5404 5401 5399 5396 5393 5390 5388 5384 5381 5379 5377 5373 5370 5368 5365 5362 5360 5357 5354 5351 5347 5344 5341 5337 5333 5329 5325 5320 5316 5313 5310
5493 5493 5492 5491 5490 5490 5488 5487 5486 5485 5483 5482 5480 5479 5478 5476 5475 5473 5472 5471 5469 5467 5466 5464 5462 5460 5458 5456 5453 5451 5449 5448 5446 5445 5444 5443 5441 5438 5435 5431 5427 5424 5422 5420 5418 5415 5414 5413 5410 5408 5406 5403 5400 5397 5394 5392 5390 5387 5384 5382 5379 5376 5373 5371 5369 5366 5363 5360 5357 5355 5352 5350 5347 5343 5340 5337 5334 5330 5327 5323 5319 5315 5310 5307 5303
5481 5481 5480 5479 5478 5477 5476 5475 5474 5472 5471 5470 5468 5467 5466 5464 5463 5462 5460 5459 5457 5455 5454 5452 5450 5448 5446 5444 5442 5440 5438 5436 5434 5433 5432 5431 5430 5429 5426 5422 5418 5414 5412 5411 5408 5406 5405 5403 5401 5398 5396 5393 5390 5387 5385 5383 5381 5378 5376 5373 5370 5367 5365 5363 5360 5358 5355 5353 5350 5348 5345 5342 5339 5336 5333 5330 5327 5324 5320 5317 5313 5309 5305 5301 5297
5469 5469 5468 5467 5466 5465 5464 5462 5461 5460 5459 5458 5457 5455 5454 5452 5451 5450 5448 5446 5445 5443 5441 5439 5437 5435 5434 5433 5431 5429 5427 5425 5423 5421 5420 5419 5418 5417 5414 5410 5407 5404 5402 5400 5398 5397 5395 5393 5391 5388 5386 5383 5380 5378 5376 5374 5371 5369 5367 5364 5361 5358 5356 5354 5352 5350 5348 5345 5343 5340 5337 5335 5332 5329 5326 5323 5320 5317 5314 5310 5307 5303 5300 5295 5292
5457 5456 5455 5454 5454 5452 5451 5450 5449 5448 5447 5446 5445 5443 5442 5440 5439 5437 5435 5434 5432 5430 5429 5427 5425 5423 5422 5420 5419 5417 5415 5413 5411 5409 5408 5407 5406 5405 5402 5399 5396 5394 5392 5390 5389 5387 5385 5383 5380 5378 5376 5373 5371 5368 5366 5363 5362 5360 5358 5355 5352 5350 5348 5346 5344 5341 5339 5338 5335 5333 5330 5327 5324 5321 5319 5316 5313 5310 5307 5304 5300 5297 5294 5290 5286
5444 5444 5443 5442 5441 5440 5439 5438 5436 5435 5434 5432 5431 5430 5428 5427 5425 5424 5422 5421 5419 5418 5416 5414 5412 5410 5409 5407 5406 5404 5402 5400 5399 5397 5396 5395 5394 5393 5391 5390 5387 5385 5383 5381 5379 5377 5375 5372 5369 5367 5365 5362 5360 5357 5355 5353 5352 5350 5348 5345 5343 5341 5340 5338 5335 5333 5331 5329 5327 5325 5323 5320 5317 5314 5311 5309 5306 5303 5300 5297 5294 5291 5287 5284 5280
5431 5431 5430 5429 5428 5427 5425 5424 5423 5422 5420 5418 5417 5416 5414 5413 5411 5410 5408 5407 5405 5404 5402 5401 5399 5397 5395 5393 5392 5390 5389 5387 5387 5386 5385 5384 5382 5381 5379 5378 5376 5374 5372 5369 5368 5365 5363 5360 5358 5356 5353 5351 5349 5347 5345 5344 5342 5339 5338 5336 5334 5333 5331 5329 5326 5324 5322 5320 5319 5317 5315 5313 5310 5307 5304 5302 5299 5296 5293 5290 5287 5284 5281 5277 5274
5418 5417 5416 5415 5414 5412 5411 5410 5409 5407 5406 5404 5403 5402 5400 5398 5397 5395 5394 5392 5391 5389 5387 5386 5384 5383 5381 5380 5378 5377 5376 5375 5374 5373 5372 5371 5370 5369 5367 5365 5364 5362 5359 5357 5356 5354 5351 5349 5347 5344 5342 5340 5338 5336 5335 5333 5330 5329 5328 5327 5326 5324 5322 5320 5318 5315 5313 5312 5311 5309 5307 5305 5303 5300 5297 5294 5291 5289 5286 5283 5280 5277 5274 5271 5267
5404 5403 5402 5401 5399 5398 5397 5395 5394 5392 5391 5390 5388 5387 5386 5384 5383 5381 5379 5377 5376 5374 5373 5371 5370 5368 5367 5366 5364 5363 5362 5361 5361 5360 5359 5358 5356 5355 5354 5353 5351 5349 5347 5346 5344 5342 5339 5337 5335 5333 5330 5328 5327 5325 5324 5322 5319 5318 5318 5317 5316 5315 5313 5311 5309 5307 5304 5303 5302 5301 5299 5297 5295 5292 5289 5287 5284 5281 5279 5276 5273 5270 5267 5264 5261